Time,TemperatureF,DewpointF,PressureIn,WindDirection,WindDirectionDegrees,WindSpeedMPH,WindSpeedGustMPH,Humidity,HourlyPrecipIn,Conditions,Clouds,dailyrainin,SoftwareType,DateUTC
2013-04-19 00:03:00,43.9,34.5,30.24,South,180,1.1,2.7,69,0.00,,,0.00,WUHU216HW,2013-04-19 07:03:00,
2013-04-19 00:09:00,43.7,34.3,30.24,WSW,248,0.4,2.7,69,0.00,,,0.00,WUHU216HW,2013-04-19 07:09:00,
2013-04-19 00:14:00,43.7,34.3,30.24,West,270,0.2,1.6,69,0.00,,,0.00,WUHU216HW,2013-04-19 07:14:00,
2013-04-19 00:19:00,43.7,34.3,30.24,WSW,248,0.0,0.4,69,0.00,,,0.00,WUHU216HW,2013-04-19 07:19:00,
2013-04-19 00:24:00,43.6,34.1,30.23,West,270,0.0,0.2,69,0.00,,,0.00,WUHU216HW,2013-04-19 07:24:00,
2013-04-19 00:29:00,43.6,34.1,30.23,WSW,248,0.0,0.0,69,0.00,,,0.00,WUHU216HW,2013-04-19 07:29:00,
2013-04-19 00:34:00,43.6,34.1,30.23,SSW,203,0.2,0.7,69,0.00,,,0.00,WUHU216HW,2013-04-19 07:34:00,
2013-04-19 00:39:00,43.6,34.1,30.23,West,270,1.1,1.1,69,0.00,,,0.00,WUHU216HW,2013-04-19 07:39:00,
2013-04-19 00:44:00,43.6,34.1,30.23,SSW,203,2.5,2.7,69,0.00,,,0.00,WUHU216HW,2013-04-19 07:44:00,
2013-04-19 00:49:00,43.6,34.5,30.23,WSW,248,2.7,2.7,70,0.00,,,0.00,WUHU216HW,2013-04-19 07:49:00,
2013-04-19 00:54:00,43.6,34.5,30.23,West,270,2.0,2.7,70,0.00,,,0.00,WUHU216HW,2013-04-19 07:54:00,
2013-04-19 00:59:00,43.6,34.5,30.22,WSW,248,2.5,4.5,70,0.00,,,0.00,WUHU216HW,2013-04-19 07:59:00,
2013-04-19 01:04:00,43.6,34.5,30.22,WSW,248,1.1,4.5,70,0.00,,,0.00,WUHU216HW,2013-04-19 08:04:00,
2013-04-19 01:09:00,43.6,34.5,30.22,WSW,248,1.8,5.4,70,0.00,,,0.00,WUHU216HW,2013-04-19 08:09:00,
2013-04-19 01:14:00,43.7,34.3,30.22,WSW,248,1.3,5.4,69,0.00,,,0.00,WUHU216HW,2013-04-19 08:14:00,
2013-04-19 01:20:00,43.7,34.7,30.22,West,270,1.6,2.5,70,0.00,,,0.00,WUHU216HW,2013-04-19 08:20:00,
2013-04-19 01:25:00,43.9,34.8,30.22,West,270,1.1,4.0,70,0.00,,,0.00,WUHU216HW,2013-04-19 08:25:00,
2013-04-19 01:30:00,43.9,34.8,30.22,WSW,248,2.5,4.0,70,0.00,,,0.00,WUHU216HW,2013-04-19 08:30:00,
2013-04-19 01:35:00,43.9,34.8,30.22,WSW,248,1.1,4.7,70,0.00,,,0.00,WUHU216HW,2013-04-19 08:35:00,
2013-04-19 01:40:00,44.1,35.0,30.22,SSW,203,0.4,4.7,70,0.00,,,0.00,WUHU216HW,2013-04-19 08:40:00,
2013-04-19 01:45:00,44.1,35.0,30.22,SW,225,2.0,4.7,70,0.00,,,0.00,WUHU216HW,2013-04-19 08:45:00,
2013-04-19 01:50:00,44.1,35.0,30.22,West,270,1.8,4.9,70,0.00,,,0.00,WUHU216HW,2013-04-19 08:50:00,
2013-04-19 01:55:00,44.3,35.5,30.21,SW,225,4.0,4.9,71,0.00,,,0.00,WUHU216HW,2013-04-19 08:55:00,
2013-04-19 02:00:00,44.3,35.1,30.21,WSW,248,4.3,5.6,70,0.00,,,0.00,WUHU216HW,2013-04-19 09:00:00,
2013-04-19 02:05:00,44.5,35.3,30.21,WNW,293,3.1,5.6,70,0.00,,,0.00,WUHU216HW,2013-04-19 09:05:00,
2013-04-19 02:10:00,44.5,35.3,30.22,WSW,248,4.0,4.7,70,0.00,,,0.00,WUHU216HW,2013-04-19 09:10:00,
2013-04-19 02:15:00,44.6,35.5,30.22,SW,225,2.0,5.4,70,0.00,,,0.00,WUHU216HW,2013-04-19 09:15:00,
2013-04-19 02:20:00,44.6,35.1,30.21,WSW,248,2.0,5.4,69,0.00,,,0.00,WUHU216HW,2013-04-19 09:20:00,
2013-04-19 02:25:00,44.6,35.1,30.21,WSW,248,1.8,4.0,69,0.00,,,0.00,WUHU216HW,2013-04-19 09:25:00,
2013-04-19 02:30:00,44.6,35.1,30.21,WSW,248,2.7,2.9,69,0.00,,,0.00,WUHU216HW,2013-04-19 09:30:00,
2013-04-19 02:36:00,44.6,35.1,30.21,West,270,3.4,3.4,69,0.00,,,0.00,WUHU216HW,2013-04-19 09:36:00,
2013-04-19 02:41:00,44.6,35.1,30.21,WSW,248,4.7,4.7,69,0.00,,,0.00,WUHU216HW,2013-04-19 09:41:00,
2013-04-19 02:46:00,44.6,35.1,30.20,WSW,248,1.3,4.7,69,0.00,,,0.00,WUHU216HW,2013-04-19 09:46:00,
2013-04-19 02:51:00,44.6,35.1,30.20,SW,225,4.7,4.7,69,0.00,,,0.00,WUHU216HW,2013-04-19 09:51:00,
2013-04-19 02:56:00,44.6,35.1,30.20,SSW,203,2.5,4.7,69,0.00,,,0.00,WUHU216HW,2013-04-19 09:56:00,
2013-04-19 03:01:00,44.8,35.3,30.20,WSW,248,2.5,4.5,69,0.00,,,0.00,WUHU216HW,2013-04-19 10:01:00,
2013-04-19 03:06:00,44.8,35.3,30.20,SSE,158,1.8,2.5,69,0.00,,,0.00,WUHU216HW,2013-04-19 10:06:00,
2013-04-19 03:11:00,44.8,35.3,30.20,WSW,248,3.4,4.9,69,0.00,,,0.00,WUHU216HW,2013-04-19 10:11:00,
2013-04-19 03:16:00,44.8,35.3,30.20,WSW,248,3.1,6.0,69,0.00,,,0.00,WUHU216HW,2013-04-19 10:16:00,
2013-04-19 03:21:00,44.8,35.3,30.20,South,180,3.1,6.0,69,0.00,,,0.00,WUHU216HW,2013-04-19 10:21:00,
2013-04-19 03:26:00,44.8,35.6,30.19,South,180,2.2,5.4,70,0.00,,,0.00,WUHU216HW,2013-04-19 10:26:00,
2013-04-19 03:31:00,45.0,35.8,30.19,SSW,203,2.5,9.2,70,0.00,,,0.00,WUHU216HW,2013-04-19 10:31:00,
2013-04-19 03:36:00,44.8,35.6,30.19,SSW,203,6.0,9.2,70,0.00,,,0.00,WUHU216HW,2013-04-19 10:36:00,
2013-04-19 03:41:00,44.6,35.5,30.19,SSW,203,4.0,7.6,70,0.00,,,0.00,WUHU216HW,2013-04-19 10:41:00,
2013-04-19 03:47:00,44.6,35.8,30.18,SW,225,4.0,7.6,71,0.00,,,0.00,WUHU216HW,2013-04-19 10:47:00,
2013-04-19 03:52:00,44.5,35.7,30.18,SSW,203,4.0,4.0,71,0.00,,,0.00,WUHU216HW,2013-04-19 10:52:00,
2013-04-19 03:57:00,44.5,35.7,30.18,SSE,158,2.9,4.0,71,0.00,,,0.00,WUHU216HW,2013-04-19 10:57:00,
2013-04-19 04:02:00,44.5,35.7,30.17,ESE,113,0.7,2.9,71,0.00,,,0.00,WUHU216HW,2013-04-19 11:02:00,
2013-04-19 04:07:00,44.3,35.5,30.17,SSE,158,1.1,3.1,71,0.00,,,0.00,WUHU216HW,2013-04-19 11:07:00,
2013-04-19 04:12:00,44.5,35.7,30.17,SE,135,1.3,3.1,71,0.00,,,0.00,WUHU216HW,2013-04-19 11:12:00,
2013-04-19 04:17:00,44.5,35.7,30.17,SSE,158,0.9,2.2,71,0.00,,,0.00,WUHU216HW,2013-04-19 11:17:00,
2013-04-19 04:22:00,44.5,35.7,30.17,SW,225,1.8,3.8,71,0.00,,,0.00,WUHU216HW,2013-04-19 11:22:00,
2013-04-19 04:27:00,44.5,35.7,30.17,SW,225,4.0,4.0,71,0.00,,,0.00,WUHU216HW,2013-04-19 11:27:00,
2013-04-19 04:32:00,44.5,35.7,30.17,WSW,248,1.3,4.5,71,0.00,,,0.00,WUHU216HW,2013-04-19 11:32:00,
2013-04-19 04:37:00,44.5,35.7,30.17,ESE,113,1.3,4.5,71,0.00,,,0.00,WUHU216HW,2013-04-19 11:37:00,
2013-04-19 04:42:00,44.5,35.7,30.17,SW,225,0.9,3.4,71,0.00,,,0.00,WUHU216HW,2013-04-19 11:42:00,
2013-04-19 04:47:00,44.5,35.7,30.17,SE,135,1.3,3.1,71,0.00,,,0.00,WUHU216HW,2013-04-19 11:47:00,
2013-04-19 04:52:00,44.5,35.7,30.17,SSE,158,1.6,3.6,71,0.00,,,0.00,WUHU216HW,2013-04-19 11:52:00,
2013-04-19 04:57:00,44.3,35.8,30.16,SW,225,2.0,5.4,72,0.00,,,0.00,WUHU216HW,2013-04-19 11:57:00,
2013-04-19 05:02:00,44.3,35.8,30.16,SW,225,3.8,5.4,72,0.00,,,0.00,WUHU216HW,2013-04-19 12:02:00,
2013-04-19 05:07:00,44.3,35.8,30.16,South,180,3.1,4.7,72,0.00,,,0.00,WUHU216HW,2013-04-19 12:07:00,
2013-04-19 05:12:00,44.3,35.8,30.16,WSW,248,4.5,9.6,72,0.00,,,0.00,WUHU216HW,2013-04-19 12:12:00,
2013-04-19 05:17:00,44.3,35.8,30.15,SW,225,5.6,9.6,72,0.00,,,0.00,WUHU216HW,2013-04-19 12:17:00,
2013-04-19 05:22:00,44.3,35.8,30.15,South,180,4.5,7.4,72,0.00,,,0.00,WUHU216HW,2013-04-19 12:22:00,
2013-04-19 05:28:00,44.1,36.0,30.15,SW,225,6.3,8.5,73,0.00,,,0.00,WUHU216HW,2013-04-19 12:28:00,
2013-04-19 05:33:00,44.1,35.6,30.15,WSW,248,5.4,8.5,72,0.00,,,0.00,WUHU216HW,2013-04-19 12:33:00,
2013-04-19 05:38:00,44.1,35.6,30.14,WSW,248,5.4,6.9,72,0.00,,,0.00,WUHU216HW,2013-04-19 12:38:00,
2013-04-19 05:43:00,43.9,35.8,30.14,West,270,5.4,6.9,73,0.00,,,0.00,WUHU216HW,2013-04-19 12:43:00,
2013-04-19 05:48:00,43.9,35.8,30.14,SW,225,8.9,9.2,73,0.00,,,0.00,WUHU216HW,2013-04-19 12:48:00,
2013-04-19 05:53:00,43.9,36.2,30.14,NE,45,8.7,17.0,74,0.00,,,0.00,WUHU216HW,2013-04-19 12:53:00,
2013-04-19 05:58:00,43.7,36.0,30.14,NNW,338,6.3,17.0,74,0.00,,,0.00,WUHU216HW,2013-04-19 12:58:00,
2013-04-19 06:03:00,43.7,36.0,30.14,SW,225,6.9,14.5,74,0.00,,,0.00,WUHU216HW,2013-04-19 13:03:00,
2013-04-19 06:08:00,43.6,35.8,30.14,SW,225,7.4,14.5,74,0.00,,,0.00,WUHU216HW,2013-04-19 13:08:00,
2013-04-19 06:13:00,43.6,35.8,30.14,WSW,248,10.7,14.3,74,0.00,,,0.00,WUHU216HW,2013-04-19 13:13:00,
2013-04-19 06:18:00,43.6,35.8,30.13,West,270,6.3,14.3,74,0.00,,,0.00,WUHU216HW,2013-04-19 13:18:00,
2013-04-19 06:23:00,43.6,36.2,30.14,SSW,203,5.6,11.2,75,0.00,,,0.00,WUHU216HW,2013-04-19 13:23:00,
2013-04-19 06:28:00,43.6,36.2,30.14,WSW,248,10.5,12.1,75,0.00,,,0.00,WUHU216HW,2013-04-19 13:28:00,
2013-04-19 06:33:00,43.4,36.0,30.14,SW,225,12.1,13.4,75,0.00,,,0.00,WUHU216HW,2013-04-19 13:33:00,
2013-04-19 06:38:00,43.4,36.3,30.14,West,270,11.4,14.1,76,0.00,,,0.00,WUHU216HW,2013-04-19 13:38:00,
2013-04-19 06:43:00,43.4,36.3,30.13,SSW,203,6.7,14.1,76,0.00,,,0.00,WUHU216HW,2013-04-19 13:43:00,
2013-04-19 06:49:00,43.4,36.3,30.13,WSW,248,8.3,13.2,76,0.00,,,0.00,WUHU216HW,2013-04-19 13:49:00,
2013-04-19 06:54:00,43.6,36.5,30.13,SSW,203,16.8,16.8,76,0.00,,,0.00,WUHU216HW,2013-04-19 13:54:00,
2013-04-19 06:59:00,43.6,36.5,30.12,SSW,203,8.9,16.8,76,0.00,,,0.00,WUHU216HW,2013-04-19 13:59:00,
2013-04-19 07:04:00,43.6,36.8,30.12,SSW,203,11.0,14.8,77,0.00,,,0.00,WUHU216HW,2013-04-19 14:04:00,
2013-04-19 07:09:00,43.6,36.5,30.13,WSW,248,7.6,14.8,76,0.00,,,0.00,WUHU216HW,2013-04-19 14:09:00,
2013-04-19 07:14:00,43.6,36.5,30.12,WSW,248,6.9,14.3,76,0.00,,,0.00,WUHU216HW,2013-04-19 14:14:00,
2013-04-19 07:19:00,43.6,36.5,30.12,SSW,203,8.5,11.0,76,0.00,,,0.00,WUHU216HW,2013-04-19 14:19:00,
2013-04-19 07:24:00,43.6,36.5,30.12,SSW,203,9.2,11.0,76,0.00,,,0.00,WUHU216HW,2013-04-19 14:24:00,
2013-04-19 07:29:00,43.6,36.5,30.13,SSW,203,8.5,11.6,76,0.00,,,0.00,WUHU216HW,2013-04-19 14:29:00,
2013-04-19 07:34:00,43.6,36.8,30.13,South,180,10.3,11.6,77,0.00,,,0.00,WUHU216HW,2013-04-19 14:34:00,
2013-04-19 07:39:00,43.6,36.8,30.13,WSW,248,5.4,13.4,77,0.00,,,0.00,WUHU216HW,2013-04-19 14:39:00,
2013-04-19 07:44:00,43.7,37.0,30.12,SW,225,4.5,13.4,77,0.00,,,0.00,WUHU216HW,2013-04-19 14:44:00,
2013-04-19 07:49:00,43.9,37.2,30.12,West,270,4.9,8.5,77,0.00,,,0.00,WUHU216HW,2013-04-19 14:49:00,
2013-04-19 07:54:00,44.1,37.4,30.12,SW,225,10.5,10.5,77,0.00,,,0.00,WUHU216HW,2013-04-19 14:54:00,
2013-04-19 07:59:00,44.3,37.5,30.12,WSW,248,9.6,10.5,77,0.00,,,0.00,WUHU216HW,2013-04-19 14:59:00,
2013-04-19 08:05:00,44.5,37.7,30.12,SSW,203,5.8,9.6,77,0.00,,,0.00,WUHU216HW,2013-04-19 15:05:00,
2013-04-19 08:10:00,44.6,37.9,30.12,WNW,293,10.5,10.5,77,0.00,,,0.00,WUHU216HW,2013-04-19 15:10:00,
2013-04-19 08:15:00,44.8,37.7,30.12,WSW,248,8.9,10.5,76,0.00,,,0.00,WUHU216HW,2013-04-19 15:15:00,
2013-04-19 08:20:00,44.8,37.7,30.12,SSW,203,4.7,14.1,76,0.00,,,0.00,WUHU216HW,2013-04-19 15:20:00,
2013-04-19 08:25:00,44.6,37.5,30.12,WSW,248,9.6,14.1,76,0.00,,,0.00,WUHU216HW,2013-04-19 15:25:00,
2013-04-19 08:30:00,44.6,37.2,30.12,SW,225,4.7,12.3,75,0.00,,,0.00,WUHU216HW,2013-04-19 15:30:00,
2013-04-19 08:35:00,44.6,37.2,30.13,WSW,248,9.2,11.6,75,0.00,,,0.00,WUHU216HW,2013-04-19 15:35:00,
2013-04-19 08:40:00,44.6,37.5,30.13,WSW,248,4.0,13.6,76,0.00,,,0.00,WUHU216HW,2013-04-19 15:40:00,
2013-04-19 08:45:00,44.6,37.5,30.13,West,270,7.6,11.6,76,0.00,,,0.00,WUHU216HW,2013-04-19 15:45:00,
2013-04-19 08:50:00,44.6,37.2,30.12,SSW,203,6.7,11.6,75,0.00,,,0.00,WUHU216HW,2013-04-19 15:50:00,
2013-04-19 08:55:00,44.6,37.5,30.13,SW,225,4.3,14.3,76,0.00,,,0.00,WUHU216HW,2013-04-19 15:55:00,
2013-04-19 09:00:00,44.6,37.5,30.13,SW,225,8.5,14.3,76,0.00,,,0.00,WUHU216HW,2013-04-19 16:00:00,
2013-04-19 09:05:00,44.8,37.7,30.13,WSW,248,6.9,12.5,76,0.00,,,0.00,WUHU216HW,2013-04-19 16:05:00,
2013-04-19 09:10:00,44.8,37.7,30.12,SSW,203,13.2,13.2,76,0.00,,,0.00,WUHU216HW,2013-04-19 16:10:00,
2013-04-19 09:15:00,44.8,37.4,30.12,WSW,248,4.7,13.2,75,0.00,,,0.00,WUHU216HW,2013-04-19 16:15:00,
2013-04-19 09:20:00,44.6,37.5,30.13,SW,225,6.5,11.0,76,0.00,,,0.00,WUHU216HW,2013-04-19 16:20:00,
2013-04-19 09:25:00,44.8,37.7,30.12,SW,225,6.9,11.0,76,0.00,,,0.00,WUHU216HW,2013-04-19 16:25:00,
2013-04-19 09:31:00,44.8,37.4,30.13,SSW,203,7.4,8.5,75,0.00,,,0.00,WUHU216HW,2013-04-19 16:31:00,
2013-04-19 09:36:00,44.8,37.4,30.12,SSW,203,7.4,11.9,75,0.00,,,0.00,WUHU216HW,2013-04-19 16:36:00,
2013-04-19 09:41:00,44.8,37.0,30.12,West,270,4.3,11.9,74,0.00,,,0.00,WUHU216HW,2013-04-19 16:41:00,
2013-04-19 09:46:00,44.8,37.0,30.12,SSW,203,6.3,9.2,74,0.00,,,0.00,WUHU216HW,2013-04-19 16:46:00,
2013-04-19 09:51:00,44.8,37.0,30.12,SSW,203,8.1,17.2,74,0.00,,,0.00,WUHU216HW,2013-04-19 16:51:00,
2013-04-19 09:56:00,44.8,37.4,30.12,SW,225,3.6,17.2,75,0.00,,,0.00,WUHU216HW,2013-04-19 16:56:00,
2013-04-19 10:01:00,45.2,37.4,30.10,WSW,248,5.6,11.4,74,0.00,,,0.00,WUHU216HW,2013-04-19 17:01:00,
2013-04-19 10:06:00,45.5,38.1,30.11,South,180,6.7,10.5,75,0.00,,,0.00,WUHU216HW,2013-04-19 17:06:00,
2013-04-19 10:11:00,46.1,38.3,30.11,SSW,203,6.5,10.5,74,0.00,,,0.00,WUHU216HW,2013-04-19 17:11:00,
2013-04-19 10:16:00,46.6,38.8,30.11,SW,225,5.8,9.4,74,0.00,,,0.00,WUHU216HW,2013-04-19 17:16:00,
2013-04-19 10:21:00,46.8,39.0,30.11,SW,225,9.8,9.8,74,0.00,,,0.00,WUHU216HW,2013-04-19 17:21:00,
2013-04-19 10:26:00,47.0,38.4,30.11,SSW,203,6.9,9.8,72,0.00,,,0.00,WUHU216HW,2013-04-19 17:26:00,
2013-04-19 10:31:00,46.8,38.3,30.11,SSW,203,5.4,10.1,72,0.00,,,0.00,WUHU216HW,2013-04-19 17:31:00,
2013-04-19 10:36:00,47.2,38.6,30.11,SSW,203,2.5,10.1,72,0.00,,,0.00,WUHU216HW,2013-04-19 17:36:00,
2013-04-19 10:41:00,47.9,39.2,30.11,SW,225,8.5,8.5,72,0.00,,,0.00,WUHU216HW,2013-04-19 17:41:00,
2013-04-19 10:46:00,48.2,39.3,30.11,WSW,248,7.6,8.5,71,0.00,,,0.00,WUHU216HW,2013-04-19 17:46:00,
2013-04-19 10:51:00,49.0,39.6,30.11,WSW,248,9.2,11.2,70,0.00,,,0.00,WUHU216HW,2013-04-19 17:51:00,
2013-04-19 10:56:00,49.3,39.2,30.11,South,180,5.8,11.2,68,0.00,,,0.00,WUHU216HW,2013-04-19 17:56:00,
2013-04-19 11:01:00,49.5,38.6,30.11,SW,225,10.1,11.6,66,0.00,,,0.00,WUHU216HW,2013-04-19 18:01:00,
2013-04-19 11:07:00,49.9,38.9,30.10,WSW,248,3.4,11.6,66,0.00,,,0.00,WUHU216HW,2013-04-19 18:07:00,
2013-04-19 11:12:00,50.0,38.4,30.11,SW,225,6.9,11.4,64,0.00,,,0.00,WUHU216HW,2013-04-19 18:12:00,
2013-04-19 11:17:00,50.2,38.9,30.11,West,270,9.6,11.4,65,0.00,,,0.00,WUHU216HW,2013-04-19 18:17:00,
2013-04-19 11:22:00,50.2,38.4,30.11,WSW,248,6.5,10.3,64,0.00,,,0.00,WUHU216HW,2013-04-19 18:22:00,
2013-04-19 11:27:00,50.0,38.4,30.11,SW,225,12.1,16.6,64,0.00,,,0.00,WUHU216HW,2013-04-19 18:27:00,
2013-04-19 11:32:00,49.9,38.2,30.10,WSW,248,6.7,16.6,64,0.00,,,0.00,WUHU216HW,2013-04-19 18:32:00,
2013-04-19 11:37:00,50.0,38.4,30.10,SE,135,5.4,11.4,64,0.00,,,0.00,WUHU216HW,2013-04-19 18:37:00,
2013-04-19 11:42:00,50.0,37.9,30.10,WSW,248,9.6,11.4,63,0.00,,,0.00,WUHU216HW,2013-04-19 18:42:00,
2013-04-19 11:47:00,50.8,38.2,30.11,SW,225,13.2,13.2,62,0.00,,,0.00,WUHU216HW,2013-04-19 18:47:00,
2013-04-19 11:52:00,50.9,38.3,30.11,West,270,6.3,13.2,62,0.00,,,0.00,WUHU216HW,2013-04-19 18:52:00,
2013-04-19 11:57:00,51.1,38.5,30.11,SW,225,4.7,11.4,62,0.00,,,0.00,WUHU216HW,2013-04-19 18:57:00,
2013-04-19 12:02:00,51.5,38.4,30.11,WSW,248,8.1,15.2,61,0.00,,,0.00,WUHU216HW,2013-04-19 19:02:00,
2013-04-19 12:07:00,52.2,39.5,30.10,WSW,248,6.9,15.2,62,0.00,,,0.00,WUHU216HW,2013-04-19 19:07:00,
2013-04-19 12:12:00,53.1,38.7,30.11,WSW,248,16.6,16.6,58,0.00,,,0.00,WUHU216HW,2013-04-19 19:12:00,
2013-04-19 12:17:00,53.6,39.7,30.10,SW,225,8.1,16.6,59,0.00,,,0.00,WUHU216HW,2013-04-19 19:17:00,
2013-04-19 12:22:00,53.5,38.1,30.10,West,270,14.1,17.2,56,0.00,,,0.00,WUHU216HW,2013-04-19 19:22:00,
2013-04-19 12:27:00,53.3,37.9,30.10,West,270,11.0,17.2,56,0.00,,,0.00,WUHU216HW,2013-04-19 19:27:00,
2013-04-19 12:32:00,53.5,37.6,30.10,WSW,248,15.2,15.2,55,0.00,,,0.00,WUHU216HW,2013-04-19 19:32:00,
2013-04-19 12:37:00,53.8,38.4,30.10,West,270,13.6,20.8,56,0.00,,,0.00,WUHU216HW,2013-04-19 19:37:00,
2013-04-19 12:42:00,54.0,38.6,30.10,NNW,338,14.1,20.8,56,0.00,,,0.00,WUHU216HW,2013-04-19 19:42:00,
2013-04-19 12:47:00,54.2,38.3,30.11,WSW,248,4.0,14.1,55,0.00,,,0.00,WUHU216HW,2013-04-19 19:47:00,
2013-04-19 12:52:00,54.4,38.0,30.11,WNW,293,7.6,13.4,54,0.00,,,0.00,WUHU216HW,2013-04-19 19:52:00,
2013-04-19 12:57:00,54.4,38.0,30.10,WSW,248,8.7,16.3,54,0.00,,,0.00,WUHU216HW,2013-04-19 19:57:00,
2013-04-19 13:02:00,55.3,38.4,30.11,WSW,248,6.7,16.3,53,0.00,,,0.00,WUHU216HW,2013-04-19 20:02:00,
2013-04-19 13:08:00,55.4,38.5,30.10,SW,225,14.1,14.1,53,0.00,,,0.00,WUHU216HW,2013-04-19 20:08:00,
2013-04-19 13:13:00,55.1,38.2,30.11,West,270,12.1,14.1,53,0.00,,,0.00,WUHU216HW,2013-04-19 20:13:00,
2013-04-19 13:18:00,55.1,37.7,30.11,West,270,15.7,15.7,52,0.00,,,0.00,WUHU216HW,2013-04-19 20:18:00,
2013-04-19 13:23:00,54.7,37.4,30.11,South,180,5.4,15.7,52,0.00,,,0.00,WUHU216HW,2013-04-19 20:23:00,
2013-04-19 13:28:00,55.1,38.2,30.11,SSW,203,5.4,15.0,53,0.00,,,0.00,WUHU216HW,2013-04-19 20:28:00,
2013-04-19 13:33:00,55.6,38.2,30.11,West,270,3.4,13.4,52,0.00,,,0.00,WUHU216HW,2013-04-19 20:33:00,
2013-04-19 13:38:00,55.8,37.4,30.11,West,270,10.3,15.2,50,0.00,,,0.00,WUHU216HW,2013-04-19 20:38:00,
2013-04-19 13:43:00,55.8,37.4,30.11,SW,225,6.3,16.1,50,0.00,,,0.00,WUHU216HW,2013-04-19 20:43:00,
2013-04-19 13:48:00,56.3,38.4,30.10,West,270,11.4,16.1,51,0.00,,,0.00,WUHU216HW,2013-04-19 20:48:00,
2013-04-19 13:53:00,56.3,38.4,30.10,SSW,203,10.5,14.8,51,0.00,,,0.00,WUHU216HW,2013-04-19 20:53:00,
2013-04-19 13:58:00,56.5,38.6,30.11,WSW,248,8.9,12.1,51,0.00,,,0.00,WUHU216HW,2013-04-19 20:58:00,
2013-04-19 14:03:00,56.0,37.6,30.11,West,270,16.1,16.1,50,0.00,,,0.00,WUHU216HW,2013-04-19 21:03:00,
2013-04-19 14:08:00,55.4,37.5,30.10,WNW,293,9.2,16.1,51,0.00,,,0.00,WUHU216HW,2013-04-19 21:08:00,
2013-04-19 14:13:00,54.7,36.9,30.11,West,270,8.5,15.7,51,0.00,,,0.00,WUHU216HW,2013-04-19 21:13:00,
2013-04-19 14:18:00,54.7,37.4,30.11,SW,225,10.5,15.7,52,0.00,,,0.00,WUHU216HW,2013-04-19 21:18:00,
2013-04-19 14:23:00,55.1,37.7,30.10,WSW,248,7.2,11.6,52,0.00,,,0.00,WUHU216HW,2013-04-19 21:23:00,
2013-04-19 14:28:00,54.9,36.6,30.11,West,270,11.0,11.0,50,0.00,,,0.00,WUHU216HW,2013-04-19 21:28:00,
2013-04-19 14:33:00,54.7,36.9,30.11,WSW,248,10.7,11.0,51,0.00,,,0.00,WUHU216HW,2013-04-19 21:33:00,
2013-04-19 14:38:00,55.1,37.3,30.11,West,270,3.4,10.7,51,0.00,,,0.00,WUHU216HW,2013-04-19 21:38:00,
2013-04-19 14:43:00,55.1,36.7,30.11,WNW,293,9.6,10.5,50,0.00,,,0.00,WUHU216HW,2013-04-19 21:43:00,
2013-04-19 14:48:00,55.3,36.9,30.11,WNW,293,9.8,10.7,50,0.00,,,0.00,WUHU216HW,2013-04-19 21:48:00,
2013-04-19 14:54:00,55.4,37.1,30.11,WSW,248,15.7,15.7,50,0.00,,,0.00,WUHU216HW,2013-04-19 21:54:00,
2013-04-19 14:59:00,55.3,36.9,30.11,NNW,338,6.3,15.7,50,0.00,,,0.00,WUHU216HW,2013-04-19 21:59:00,
2013-04-19 15:04:00,54.9,36.6,30.11,WSW,248,6.9,12.8,50,0.00,,,0.00,WUHU216HW,2013-04-19 22:04:00,
2013-04-19 15:09:00,55.1,37.3,30.11,NW,315,5.4,12.8,51,0.00,,,0.00,WUHU216HW,2013-04-19 22:09:00,
2013-04-19 15:14:00,55.3,36.4,30.11,SSW,203,2.7,8.5,49,0.00,,,0.00,WUHU216HW,2013-04-19 22:14:00,
2013-04-19 15:19:00,55.1,36.2,30.11,WSW,248,7.8,7.8,49,0.00,,,0.00,WUHU216HW,2013-04-19 22:19:00,
2013-04-19 15:24:00,54.5,34.6,30.11,NNW,338,6.9,7.8,47,0.00,,,0.00,WUHU216HW,2013-04-19 22:24:00,
2013-04-19 15:29:00,53.8,35.1,30.11,West,270,5.8,10.1,49,0.00,,,0.00,WUHU216HW,2013-04-19 22:29:00,
2013-04-19 15:34:00,54.7,36.9,30.11,WSW,248,10.3,10.3,51,0.00,,,0.00,WUHU216HW,2013-04-19 22:34:00,
2013-04-19 15:39:00,55.3,36.9,30.11,SSW,203,2.5,11.0,50,0.00,,,0.00,WUHU216HW,2013-04-19 22:39:00,
2013-04-19 15:44:00,55.4,37.1,30.11,SW,225,2.9,11.0,50,0.00,,,0.00,WUHU216HW,2013-04-19 22:44:00,
2013-04-19 15:49:00,55.6,37.3,30.11,North,0,1.8,9.2,50,0.00,,,0.00,WUHU216HW,2013-04-19 22:49:00,
2013-04-19 15:54:00,55.3,36.4,30.11,SW,225,5.4,6.3,49,0.00,,,0.00,WUHU216HW,2013-04-19 22:54:00,
2013-04-19 15:59:00,54.9,36.6,30.11,WSW,248,10.7,10.7,50,0.00,,,0.00,WUHU216HW,2013-04-19 22:59:00,
2013-04-19 16:04:00,55.1,36.7,30.11,West,270,6.3,10.7,50,0.00,,,0.00,WUHU216HW,2013-04-19 23:04:00,
2013-04-19 16:10:00,54.5,35.2,30.11,WSW,248,12.1,15.4,48,0.00,,,0.00,WUHU216HW,2013-04-19 23:10:00,
2013-04-19 16:15:00,54.0,33.6,30.11,WSW,248,6.0,15.4,46,0.00,,,0.00,WUHU216HW,2013-04-19 23:15:00,
2013-04-19 16:20:00,53.8,34.5,30.11,NW,315,7.8,12.1,48,0.00,,,0.00,WUHU216HW,2013-04-19 23:20:00,
2013-04-19 16:25:00,54.0,34.7,30.11,NW,315,4.9,8.5,48,0.00,,,0.00,WUHU216HW,2013-04-19 23:25:00,
2013-04-19 16:30:00,54.5,35.2,30.11,WSW,248,7.6,9.8,48,0.00,,,0.00,WUHU216HW,2013-04-19 23:30:00,
2013-04-19 16:35:00,54.4,34.5,30.11,WNW,293,15.4,15.4,47,0.00,,,0.00,WUHU216HW,2013-04-19 23:35:00,
2013-04-19 16:40:00,53.8,34.5,30.11,West,270,5.1,15.4,48,0.00,,,0.00,WUHU216HW,2013-04-19 23:40:00,
2013-04-19 16:45:00,53.6,34.4,30.11,NNW,338,7.6,12.1,48,0.00,,,0.00,WUHU216HW,2013-04-19 23:45:00,
2013-04-19 16:50:00,52.9,32.6,30.11,SW,225,6.7,12.1,46,0.00,,,0.00,WUHU216HW,2013-04-19 23:50:00,
2013-04-19 16:55:00,52.7,34.1,30.11,West,270,9.4,12.8,49,0.00,,,0.00,WUHU216HW,2013-04-19 23:55:00,
2013-04-19 17:00:00,52.9,34.3,30.11,West,270,9.8,17.2,49,0.00,,,0.00,WUHU216HW,2013-04-20 00:00:00,
2013-04-19 17:05:00,53.5,34.2,30.12,SW,225,5.6,17.2,48,0.00,,,0.00,WUHU216HW,2013-04-20 00:05:00,
2013-04-19 17:10:00,53.5,33.7,30.12,WNW,293,7.2,8.1,47,0.00,,,0.00,WUHU216HW,2013-04-20 00:10:00,
2013-04-19 17:15:00,53.6,33.2,30.12,NNE,23,2.9,7.2,46,0.00,,,0.00,WUHU216HW,2013-04-20 00:15:00,
2013-04-19 17:20:00,53.6,33.8,30.13,West,270,3.1,5.6,47,0.00,,,0.00,WUHU216HW,2013-04-20 00:20:00,
2013-04-19 17:25:00,53.6,34.4,30.13,SW,225,2.5,4.3,48,0.00,,,0.00,WUHU216HW,2013-04-20 00:25:00,
2013-04-19 17:31:00,53.8,34.5,30.13,SSW,203,5.4,5.4,48,0.00,,,0.00,WUHU216HW,2013-04-20 00:31:00,
2013-04-19 17:36:00,54.0,34.7,30.14,SSW,203,2.7,5.4,48,0.00,,,0.00,WUHU216HW,2013-04-20 00:36:00,
2013-04-19 17:41:00,53.1,31.6,30.13,North,0,6.5,10.1,44,0.00,,,0.00,WUHU216HW,2013-04-20 00:41:00,
2013-04-19 17:46:00,52.2,32.0,30.14,WSW,248,6.0,10.1,46,0.00,,,0.00,WUHU216HW,2013-04-20 00:46:00,
2013-04-19 17:51:00,52.2,32.5,30.13,NW,315,2.9,10.1,47,0.00,,,0.00,WUHU216HW,2013-04-20 00:51:00,
2013-04-19 17:56:00,52.2,33.0,30.13,South,180,1.1,6.3,48,0.00,,,0.00,WUHU216HW,2013-04-20 00:56:00,
2013-04-19 18:01:00,51.8,32.1,30.13,WNW,293,0.4,8.3,47,0.00,,,0.00,WUHU216HW,2013-04-20 01:01:00,
2013-04-19 18:06:00,51.5,33.9,30.13,North,0,4.3,8.3,51,0.00,,,0.00,WUHU216HW,2013-04-20 01:06:00,
2013-04-19 18:11:00,50.8,33.3,30.12,WNW,293,8.3,9.8,51,0.00,,,0.00,WUHU216HW,2013-04-20 01:11:00,
2013-04-19 18:16:00,50.9,32.0,30.13,West,270,8.3,9.8,48,0.00,,,0.00,WUHU216HW,2013-04-20 01:16:00,
2013-04-19 18:21:00,50.4,33.0,30.13,NW,315,3.4,8.3,51,0.00,,,0.00,WUHU216HW,2013-04-20 01:21:00,
2013-04-19 18:26:00,50.0,31.7,30.13,WNW,293,4.0,5.4,49,0.00,,,0.00,WUHU216HW,2013-04-20 01:26:00,
2013-04-19 18:31:00,50.0,32.2,30.13,WNW,293,2.0,5.4,50,0.00,,,0.00,WUHU216HW,2013-04-20 01:31:00,
2013-04-19 18:36:00,49.9,32.0,30.13,West,270,5.4,8.7,50,0.00,,,0.00,WUHU216HW,2013-04-20 01:36:00,
2013-04-19 18:42:00,49.7,31.3,30.14,West,270,4.7,8.7,49,0.00,,,0.00,WUHU216HW,2013-04-20 01:42:00,
2013-04-19 18:47:00,49.7,30.3,30.14,NNW,338,2.5,5.4,47,0.00,,,0.00,WUHU216HW,2013-04-20 01:47:00,
2013-04-19 18:52:00,49.3,30.4,30.14,NNE,23,4.7,5.4,48,0.00,,,0.00,WUHU216HW,2013-04-20 01:52:00,
2013-04-19 18:57:00,49.0,30.1,30.14,NNE,23,2.9,6.3,48,0.00,,,0.00,WUHU216HW,2013-04-20 01:57:00,
2013-04-19 19:02:00,49.0,30.1,30.14,North,0,1.8,6.3,48,0.00,,,0.00,WUHU216HW,2013-04-20 02:02:00,
2013-04-19 19:07:00,48.6,30.3,30.14,WNW,293,2.5,2.5,49,0.00,,,0.00,WUHU216HW,2013-04-20 02:07:00,
2013-04-19 19:12:00,48.4,31.5,30.14,WNW,293,0.0,4.0,52,0.00,,,0.00,WUHU216HW,2013-04-20 02:12:00,
2013-04-19 19:17:00,48.2,32.3,30.14,NNW,338,5.1,5.1,54,0.00,,,0.00,WUHU216HW,2013-04-20 02:17:00,
2013-04-19 19:22:00,47.7,32.7,30.14,NNW,338,1.1,5.1,56,0.00,,,0.00,WUHU216HW,2013-04-20 02:22:00,
2013-04-19 19:27:00,47.0,32.5,30.14,North,0,1.6,4.9,57,0.00,,,0.00,WUHU216HW,2013-04-20 02:27:00,
2013-04-19 19:32:00,46.6,32.1,30.14,NNE,23,0.9,4.9,57,0.00,,,0.00,WUHU216HW,2013-04-20 02:32:00,
2013-04-19 19:37:00,46.3,32.2,30.14,WNW,293,0.9,3.1,58,0.00,,,0.00,WUHU216HW,2013-04-20 02:37:00,
2013-04-19 19:42:00,45.7,33.4,30.14,NNE,23,1.8,6.0,62,0.00,,,0.00,WUHU216HW,2013-04-20 02:42:00,
2013-04-19 19:47:00,45.4,32.7,30.14,ENE,68,1.1,6.0,61,0.00,,,0.00,WUHU216HW,2013-04-20 02:47:00,
2013-04-19 19:52:00,45.2,32.6,30.14,North,0,1.3,2.0,61,0.00,,,0.00,WUHU216HW,2013-04-20 02:52:00,
2013-04-19 19:57:00,45.0,32.4,30.14,NNW,338,0.0,1.8,61,0.00,,,0.00,WUHU216HW,2013-04-20 02:57:00,
2013-04-19 20:02:00,45.0,32.4,30.14,NNE,23,2.2,2.2,61,0.00,,,0.00,WUHU216HW,2013-04-20 03:02:00,
2013-04-19 20:07:00,45.0,32.4,30.15,NNE,23,0.4,2.2,61,0.00,,,0.00,WUHU216HW,2013-04-20 03:07:00,
2013-04-19 20:12:00,44.8,32.6,30.15,ENE,68,0.2,2.0,62,0.00,,,0.00,WUHU216HW,2013-04-20 03:12:00,
2013-04-19 20:17:00,44.6,32.4,30.15,NNE,23,1.1,2.0,62,0.00,,,0.00,WUHU216HW,2013-04-20 03:17:00,
2013-04-19 20:22:00,44.3,32.9,30.15,WNW,293,0.7,2.0,64,0.00,,,0.00,WUHU216HW,2013-04-20 03:22:00,
2013-04-19 20:27:00,44.1,32.3,30.15,SSE,158,0.4,2.0,63,0.00,,,0.00,WUHU216HW,2013-04-20 03:27:00,
2013-04-19 20:32:00,43.9,32.9,30.16,North,0,0.0,6.9,65,0.00,,,0.00,WUHU216HW,2013-04-20 03:32:00,
2013-04-19 20:37:00,43.6,32.1,30.16,WSW,248,0.2,6.9,64,0.00,,,0.00,WUHU216HW,2013-04-20 03:37:00,
2013-04-19 20:42:00,43.6,33.3,30.16,ESE,113,1.3,4.9,67,0.00,,,0.00,WUHU216HW,2013-04-20 03:42:00,
2013-04-19 20:47:00,43.2,32.6,30.16,North,0,1.1,4.9,66,0.00,,,0.00,WUHU216HW,2013-04-20 03:47:00,
2013-04-19 20:52:00,42.8,32.7,30.16,North,0,1.6,4.0,67,0.00,,,0.00,WUHU216HW,2013-04-20 03:52:00,
2013-04-19 20:58:00,42.7,32.9,30.16,NW,315,0.7,4.3,68,0.00,,,0.00,WUHU216HW,2013-04-20 03:58:00,
2013-04-19 21:01:00,42.5,32.7,30.16,NNE,23,1.3,4.3,68,0.00,,,0.00,WUHU216HW,2013-04-20 04:01:00,
2013-04-19 21:06:00,42.1,33.1,30.16,NNE,23,3.6,3.6,70,0.00,,,0.00,WUHU216HW,2013-04-20 04:06:00,
2013-04-19 21:11:00,42.1,33.5,30.17,SSW,203,1.1,3.6,71,0.00,,,0.00,WUHU216HW,2013-04-20 04:11:00,
2013-04-19 21:16:00,41.9,32.6,30.17,NW,315,0.7,4.0,69,0.00,,,0.00,WUHU216HW,2013-04-20 04:16:00,
2013-04-19 21:22:00,41.6,33.0,30.17,NNE,23,0.9,4.0,71,0.00,,,0.00,WUHU216HW,2013-04-20 04:22:00,
2013-04-19 21:27:00,41.6,32.6,30.17,North,0,0.4,2.9,70,0.00,,,0.00,WUHU216HW,2013-04-20 04:27:00,
2013-04-19 21:32:00,41.4,32.4,30.17,WNW,293,1.6,2.7,70,0.00,,,0.00,WUHU216HW,2013-04-20 04:32:00,
2013-04-19 21:37:00,41.2,32.6,30.17,WNW,293,2.5,2.7,71,0.00,,,0.00,WUHU216HW,2013-04-20 04:37:00,
2013-04-19 21:42:00,41.0,32.4,30.17,North,0,1.1,2.5,71,0.00,,,0.00,WUHU216HW,2013-04-20 04:42:00,
2013-04-19 21:47:00,41.0,32.4,30.17,NNE,23,0.4,2.5,71,0.00,,,0.00,WUHU216HW,2013-04-20 04:47:00,
2013-04-19 21:52:00,40.9,31.9,30.17,NNW,338,0.2,2.0,70,0.00,,,0.00,WUHU216HW,2013-04-20 04:52:00,
2013-04-19 21:57:00,40.9,32.2,30.17,NNW,338,1.8,2.9,71,0.00,,,0.00,WUHU216HW,2013-04-20 04:57:00,
2013-04-19 22:02:00,40.7,31.7,30.18,West,270,0.4,2.9,70,0.00,,,0.00,WUHU216HW,2013-04-20 05:02:00,
2013-04-19 22:07:00,40.7,31.7,30.18,South,180,1.3,1.3,70,0.00,,,0.00,WUHU216HW,2013-04-20 05:07:00,
2013-04-19 22:12:00,40.7,31.3,30.18,SE,135,1.1,1.3,69,0.00,,,0.00,WUHU216HW,2013-04-20 05:12:00,
2013-04-19 22:17:00,40.7,31.3,30.18,North,0,1.6,1.6,69,0.00,,,0.00,WUHU216HW,2013-04-20 05:17:00,
2013-04-19 22:22:00,40.5,31.5,30.17,North,0,1.6,1.6,70,0.00,,,0.00,WUHU216HW,2013-04-20 05:22:00,
2013-04-19 22:28:00,40.3,31.3,30.18,North,0,0.4,2.0,70,0.00,,,0.00,WUHU216HW,2013-04-20 05:28:00,
2013-04-19 22:33:00,40.3,31.3,30.18,North,0,1.1,2.0,70,0.00,,,0.00,WUHU216HW,2013-04-20 05:33:00,
2013-04-19 22:38:00,40.1,31.1,30.18,NNE,23,1.3,1.8,70,0.00,,,0.00,WUHU216HW,2013-04-20 05:38:00,
2013-04-19 22:42:00,40.0,31.3,30.18,North,0,0.4,2.5,71,0.00,,,0.00,WUHU216HW,2013-04-20 05:42:00,
2013-04-19 22:47:00,39.8,31.4,30.18,NW,315,0.4,2.5,72,0.00,,,0.00,WUHU216HW,2013-04-20 05:47:00,
2013-04-19 22:53:00,39.8,31.8,30.17,NW,315,2.2,3.6,73,0.00,,,0.00,WUHU216HW,2013-04-20 05:53:00,
2013-04-19 22:58:00,39.4,31.8,30.18,North,0,3.8,3.8,74,0.00,,,0.00,WUHU216HW,2013-04-20 05:58:00,
2013-04-19 23:03:00,39.2,31.6,30.18,North,0,1.8,3.8,74,0.00,,,0.00,WUHU216HW,2013-04-20 06:03:00,
2013-04-19 23:08:00,39.2,31.6,30.18,NNW,338,1.8,3.6,74,0.00,,,0.00,WUHU216HW,2013-04-20 06:08:00,
2013-04-19 23:13:00,39.2,31.2,30.18,South,180,1.3,2.2,73,0.00,,,0.00,WUHU216HW,2013-04-20 06:13:00,
2013-04-19 23:18:00,39.2,31.0,30.18,NE,45,0.9,1.3,72,0.00,,,0.00,WUHU216HW,2013-04-20 06:18:00,
2013-04-19 23:23:00,39.1,31.2,30.18,NNE,23,0.4,1.1,73,0.00,,,0.00,WUHU216HW,2013-04-20 06:23:00,
2013-04-19 23:28:00,38.9,31.0,30.18,North,0,0.0,0.7,73,0.00,,,0.00,WUHU216HW,2013-04-20 06:28:00,
2013-04-19 23:33:00,38.7,31.2,30.18,ENE,68,0.2,1.8,74,0.00,,,0.00,WUHU216HW,2013-04-20 06:33:00,
2013-04-19 23:38:00,38.7,30.8,30.18,NNE,23,0.4,1.8,73,0.00,,,0.00,WUHU216HW,2013-04-20 06:38:00,
2013-04-19 23:43:00,38.9,31.2,30.18,North,0,1.1,1.1,74,0.00,,,0.00,WUHU216HW,2013-04-20 06:43:00,
2013-04-19 23:48:00,38.7,30.8,30.18,North,0,0.0,1.8,73,0.00,,,0.00,WUHU216HW,2013-04-20 06:48:00,
2013-04-19 23:53:00,38.5,30.6,30.18,North,0,0.7,1.8,73,0.00,,,0.00,WUHU216HW,2013-04-20 06:53:00,
2013-04-19 23:58:00,38.5,31.0,30.18,North,0,0.7,0.7,74,0.00,,,0.00,WUHU216HW,2013-04-20 06:58:00,